Terminal Aerodrome Forecast
Issued by NWS Pueblo, CO

Home | Current Version | Previous Version | Text Only | Print | Product List | Glossary On
Versions: 1 2 3 4 5 6 7 8 9 10 11 12 13 14 15 16 17 18 19 20 21 22 23 24 25 26 27 28 29 30 31
000
FTUS45 KPUB 211515 AAB
TAFPUB
TAF AMD
KPUB 211515Z 2115/2212 10010KT P6SM OVC050
     FM212000 13012G22KT P6SM BKN090
     FM220300 12008KT P6SM SCT060 BKN110=

USA.gov is the U.S. government's official web portal to all federal, state and local government web resources and services.